Location: Academy at Carrie F Thomas
(32.8490°N, 97.2053°W)
Time: 03:36:57
(UTC+00:00)

N. Korean satellite - Visible Passes

Search period start: 18 May 2022 00:00
Search period end: 28 May 2022 00:00
Orbit: 439 x 478 km, 97.3° (Epoch: 16 May)

Date Brightness Start Highest point End Pass type
(mag) Time Alt. Az. Time Alt. Az. Time Alt. Az.
18 May 9.3 10:56:35 10° NE 10:59:18 21° E 11:01:57 10° SE visible
21 May 9.4 10:52:42 10° NE 10:55:09 18° E 10:57:35 10° SE visible
24 May 9.4 10:48:34 10° ENE 10:50:42 15° E 10:52:50 10° SE visible
27 May 9.5 10:44:13 10° ENE 10:45:56 13° E 10:47:36 10° ESE visible
